Year,Month,Day,Hour,Minute,Value (Times are PST for temperature in C)
2010,10,01,00,00,11.20
2010,10,01,00,01,11.20
2010,10,01,00,02,11.20
2010,10,01,00,03,11.20
2010,10,01,00,04,11.20
2010,10,01,00,05,11.20
2010,10,01,00,06,11.20
2010,10,01,00,07,11.20
2010,10,01,00,08,11.30
2010,10,01,00,09,11.20
2010,10,01,00,10,11.20
2010,10,01,00,11,11.20
2010,10,01,00,12,11.20
2010,10,01,00,13,11.20
2010,10,01,00,14,11.20
2010,10,01,00,15,11.20
2010,10,01,00,16,11.20
2010,10,01,00,17,11.20
2010,10,01,00,18,11.20
2010,10,01,00,19,11.10
2010,10,01,00,20,11.10
2010,10,01,00,21,11.10
2010,10,01,00,22,11.10
2010,10,01,00,23,11.10
2010,10,01,00,24,11.10
2010,10,01,00,25,11.10
2010,10,01,00,26,11.10
2010,10,01,00,27,11.10
2010,10,01,00,28,11.10
2010,10,01,00,29,11.00
2010,10,01,00,30,10.90
2010,10,01,00,31,10.90
2010,10,01,00,32,10.90
2010,10,01,00,33,10.90
2010,10,01,00,34,10.90
2010,10,01,00,35,10.90
2010,10,01,00,36,10.90
2010,10,01,00,37,10.90
2010,10,01,00,38,10.90
2010,10,01,00,39,10.90
2010,10,01,00,40,10.90
2010,10,01,00,41,10.80
2010,10,01,00,42,10.80
2010,10,01,00,43,10.80
2010,10,01,00,44,10.80
2010,10,01,00,45,10.80
2010,10,01,00,46,10.80
2010,10,01,00,47,10.80
2010,10,01,00,48,10.80
2010,10,01,00,49,10.70
2010,10,01,00,50,10.70
2010,10,01,00,51,10.70
2010,10,01,00,52,10.70
2010,10,01,00,53,10.70
2010,10,01,00,54,10.70
2010,10,01,00,55,10.70
2010,10,01,00,56,10.70
2010,10,01,00,57,10.70
2010,10,01,00,58,10.70
2010,10,01,00,59,10.70
2010,10,01,01,00,10.70
2010,10,01,01,01,10.70
2010,10,01,01,02,10.70
2010,10,01,01,03,10.70
2010,10,01,01,04,10.80
2010,10,01,01,05,10.80
2010,10,01,01,06,10.80
2010,10,01,01,07,10.80
2010,10,01,01,08,10.70
2010,10,01,01,09,10.70
2010,10,01,01,10,10.70
2010,10,01,01,11,10.70
2010,10,01,01,12,10.70
2010,10,01,01,13,10.70
2010,10,01,01,14,10.60
2010,10,01,01,15,10.60
2010,10,01,01,16,10.60
2010,10,01,01,17,10.60
2010,10,01,01,18,10.60
2010,10,01,01,19,10.60
2010,10,01,01,20,10.60
2010,10,01,01,21,10.60
2010,10,01,01,22,10.60
2010,10,01,01,23,10.60
2010,10,01,01,24,10.50
2010,10,01,01,25,10.40
2010,10,01,01,26,10.40
2010,10,01,01,27,10.40
2010,10,01,01,28,10.40
2010,10,01,01,29,10.40
2010,10,01,01,30,10.40
2010,10,01,01,31,10.40
2010,10,01,01,32,10.40
2010,10,01,01,33,10.40
2010,10,01,01,34,10.40
2010,10,01,01,35,10.40
2010,10,01,01,36,10.40
2010,10,01,01,37,10.40
2010,10,01,01,38,10.40
2010,10,01,01,39,10.40
2010,10,01,01,40,10.60
2010,10,01,01,41,10.60
2010,10,01,01,42,10.60
2010,10,01,01,43,10.60
2010,10,01,01,44,10.40
2010,10,01,01,45,10.40
2010,10,01,01,46,10.40
2010,10,01,01,47,10.40
2010,10,01,01,48,10.40
2010,10,01,01,49,10.40
2010,10,01,01,50,10.40
2010,10,01,01,51,10.40
2010,10,01,01,52,10.40
2010,10,01,01,53,10.40
2010,10,01,01,54,10.40
2010,10,01,01,55,10.40
2010,10,01,01,56,10.40
2010,10,01,01,57,10.40
2010,10,01,01,58,10.60
2010,10,01,01,59,10.60
2010,10,01,02,00,10.60
2010,10,01,02,01,10.60
2010,10,01,02,02,10.60
2010,10,01,02,03,10.70
2010,10,01,02,04,10.70
2010,10,01,02,05,10.70
2010,10,01,02,06,10.70
2010,10,01,02,07,10.70
2010,10,01,02,08,10.70
2010,10,01,02,09,10.70
2010,10,01,02,10,10.80
2010,10,01,02,11,10.80
2010,10,01,02,12,10.80
2010,10,01,02,13,10.80
2010,10,01,02,14,10.90
2010,10,01,02,15,10.90
2010,10,01,02,16,10.90
2010,10,01,02,17,10.90
2010,10,01,02,18,10.80
2010,10,01,02,19,10.80
2010,10,01,02,20,10.80
2010,10,01,02,21,10.70
2010,10,01,02,22,10.70
2010,10,01,02,23,10.70
2010,10,01,02,24,10.70
2010,10,01,02,25,10.70
2010,10,01,02,26,10.70
2010,10,01,02,27,10.80
2010,10,01,02,28,10.80
2010,10,01,02,29,10.90
2010,10,01,02,30,10.90
2010,10,01,02,31,10.90
2010,10,01,02,32,10.90
2010,10,01,02,33,10.80
2010,10,01,02,34,10.80
2010,10,01,02,35,10.80
2010,10,01,02,36,10.70
2010,10,01,02,37,10.70
2010,10,01,02,38,10.70
2010,10,01,02,39,10.70
2010,10,01,02,40,10.70
2010,10,01,02,41,10.70
2010,10,01,02,42,10.70
2010,10,01,02,43,10.70
2010,10,01,02,44,10.70
2010,10,01,02,45,10.70
2010,10,01,02,46,10.70
2010,10,01,02,47,10.70
2010,10,01,02,48,10.70
2010,10,01,02,49,10.70
2010,10,01,02,50,10.70
2010,10,01,02,51,10.70
2010,10,01,02,52,10.60
2010,10,01,02,53,10.60
2010,10,01,02,54,10.70
2010,10,01,02,55,10.60
2010,10,01,02,56,10.60
2010,10,01,02,57,10.60
2010,10,01,02,58,10.60
2010,10,01,02,59,10.60
2010,10,01,03,00,10.50
2010,10,01,03,01,10.40
2010,10,01,03,02,10.40
2010,10,01,03,03,10.40
2010,10,01,03,04,10.30
2010,10,01,03,05,10.30
2010,10,01,03,06,10.30
2010,10,01,03,07,10.20
2010,10,01,03,08,10.20
2010,10,01,03,09,10.20
2010,10,01,03,10,10.20
2010,10,01,03,11,10.20
2010,10,01,03,12,10.20
2010,10,01,03,13,10.20
2010,10,01,03,14,10.20
2010,10,01,03,15,10.10
2010,10,01,03,16,10.10
2010,10,01,03,17,10.10
2010,10,01,03,18,10.10
2010,10,01,03,19,10.10
2010,10,01,03,20,10.10
2010,10,01,03,21,10.10
2010,10,01,03,22,10.10
2010,10,01,03,23,10.10
2010,10,01,03,24,10.10
2010,10,01,03,25,10.10
2010,10,01,03,26,10.10
2010,10,01,03,27,10.10
2010,10,01,03,28,10.20
2010,10,01,03,29,10.20
2010,10,01,03,30,10.20
2010,10,01,03,31,10.20
2010,10,01,03,32,10.10
2010,10,01,03,33,10.10
2010,10,01,03,34,10.10
2010,10,01,03,35,10.10
2010,10,01,03,36,10.10
2010,10,01,03,37,10.10
2010,10,01,03,38,10.10
2010,10,01,03,39,10.10
2010,10,01,03,40,10.10
2010,10,01,03,41,10.10
2010,10,01,03,42,10.10
2010,10,01,03,43,10.10
2010,10,01,03,44,10.10
2010,10,01,03,45,10.10
2010,10,01,03,46,10.10
2010,10,01,03,47,10.20
2010,10,01,03,48,10.20
2010,10,01,03,49,10.20
2010,10,01,03,50,10.20
2010,10,01,03,51,10.10
2010,10,01,03,52,10.10
2010,10,01,03,53,10.20
2010,10,01,03,54,10.20
2010,10,01,03,55,10.20
2010,10,01,03,56,10.30
2010,10,01,03,57,10.30
2010,10,01,03,58,10.40
2010,10,01,03,59,10.30
2010,10,01,04,00,10.30
2010,10,01,04,01,10.20
2010,10,01,04,02,10.10
2010,10,01,04,03,10.00
2010,10,01,04,04,9.90
2010,10,01,04,05,9.90
2010,10,01,04,06,9.90
2010,10,01,04,07,9.90
2010,10,01,04,08,9.90
2010,10,01,04,09,9.80
2010,10,01,04,10,9.80
2010,10,01,04,11,9.80
2010,10,01,04,12,9.70
2010,10,01,04,13,9.70
2010,10,01,04,14,9.80
2010,10,01,04,15,9.80
2010,10,01,04,16,9.80
2010,10,01,04,17,9.80
2010,10,01,04,18,9.90
2010,10,01,04,19,9.90
2010,10,01,04,20,9.90
2010,10,01,04,21,9.90
2010,10,01,04,22,9.90
2010,10,01,04,23,9.90
2010,10,01,04,24,9.90
2010,10,01,04,25,9.90
2010,10,01,04,26,9.90
2010,10,01,04,27,9.90
2010,10,01,04,28,9.90
2010,10,01,04,29,9.90
2010,10,01,04,30,9.90
2010,10,01,04,31,9.90
2010,10,01,04,32,9.90
2010,10,01,04,33,9.80
2010,10,01,04,34,9.80
2010,10,01,04,35,9.80
2010,10,01,04,36,9.80
2010,10,01,04,37,9.80
2010,10,01,04,38,9.80
2010,10,01,04,39,9.80
2010,10,01,04,40,9.80
2010,10,01,04,41,9.80
2010,10,01,04,42,9.80
2010,10,01,04,43,9.80
2010,10,01,04,44,9.70
2010,10,01,04,45,9.70
2010,10,01,04,46,9.70
2010,10,01,04,47,9.70
2010,10,01,04,48,9.70
2010,10,01,04,49,9.70
2010,10,01,04,50,9.70
2010,10,01,04,51,9.70
2010,10,01,04,52,9.70
2010,10,01,04,53,9.70
2010,10,01,04,54,9.70
2010,10,01,04,55,9.70
2010,10,01,04,56,9.70
2010,10,01,04,57,9.70
2010,10,01,04,58,9.70
2010,10,01,04,59,9.70
2010,10,01,05,00,9.70
2010,10,01,05,01,9.70
2010,10,01,05,02,9.70
2010,10,01,05,03,9.70
2010,10,01,05,04,9.70
2010,10,01,05,05,9.70
2010,10,01,05,06,9.70
2010,10,01,05,07,9.70
2010,10,01,05,08,9.70
2010,10,01,05,09,9.70
2010,10,01,05,10,9.70
2010,10,01,05,11,9.70
2010,10,01,05,12,9.70
2010,10,01,05,13,9.80
2010,10,01,05,14,9.80
2010,10,01,05,15,9.80
2010,10,01,05,16,9.80
2010,10,01,05,17,9.80
2010,10,01,05,18,9.80
2010,10,01,05,19,9.80
2010,10,01,05,20,9.80
2010,10,01,05,21,9.80
2010,10,01,05,22,9.70
2010,10,01,05,23,9.70
2010,10,01,05,24,9.80
2010,10,01,05,25,9.80
2010,10,01,05,26,9.80
2010,10,01,05,27,9.80
2010,10,01,05,28,9.80
2010,10,01,05,29,9.80
2010,10,01,05,30,9.80
2010,10,01,05,31,9.80
2010,10,01,05,32,9.80
2010,10,01,05,33,9.80
2010,10,01,05,34,9.70
2010,10,01,05,35,9.70
2010,10,01,05,36,9.70
2010,10,01,05,37,9.70
2010,10,01,05,38,9.70
2010,10,01,05,39,9.70
2010,10,01,05,40,9.60
2010,10,01,05,41,9.60
2010,10,01,05,42,9.60
2010,10,01,05,43,9.60
2010,10,01,05,44,9.50
2010,10,01,05,45,9.50
2010,10,01,05,46,9.40
2010,10,01,05,47,9.40
2010,10,01,05,48,9.30
2010,10,01,05,49,9.20
2010,10,01,05,50,9.20
2010,10,01,05,51,9.20
2010,10,01,05,52,9.20
2010,10,01,05,53,9.20
2010,10,01,05,54,9.20
2010,10,01,05,55,9.20
2010,10,01,05,56,9.20
2010,10,01,05,57,9.20
2010,10,01,05,58,9.20
2010,10,01,05,59,9.20
2010,10,01,06,00,9.20
2010,10,01,06,01,9.20
2010,10,01,06,02,9.30
2010,10,01,06,03,9.30
2010,10,01,06,04,9.30
2010,10,01,06,05,9.30
2010,10,01,06,06,9.30
2010,10,01,06,07,9.30
2010,10,01,06,08,9.30
2010,10,01,06,09,9.30
2010,10,01,06,10,9.30
2010,10,01,06,11,9.30
2010,10,01,06,12,9.30
2010,10,01,06,13,9.30
2010,10,01,06,14,9.30
2010,10,01,06,15,9.30
2010,10,01,06,16,9.30
2010,10,01,06,17,9.30
2010,10,01,06,18,9.30
2010,10,01,06,19,9.30
2010,10,01,06,20,9.30
2010,10,01,06,21,9.30
2010,10,01,06,22,9.30
2010,10,01,06,23,9.40
2010,10,01,06,24,9.40
2010,10,01,06,25,9.50
2010,10,01,06,26,9.50
2010,10,01,06,27,9.60
2010,10,01,06,28,9.60
2010,10,01,06,29,9.60
2010,10,01,06,30,9.60
2010,10,01,06,31,9.50
2010,10,01,06,32,9.50
2010,10,01,06,33,9.50
2010,10,01,06,34,9.50
2010,10,01,06,35,9.50
2010,10,01,06,36,9.40
2010,10,01,06,37,9.50
2010,10,01,06,38,9.50
2010,10,01,06,39,9.50
2010,10,01,06,40,9.50
2010,10,01,06,41,9.50
2010,10,01,06,42,9.50
2010,10,01,06,43,9.50
2010,10,01,06,44,9.50
2010,10,01,06,45,9.50
2010,10,01,06,46,9.50
2010,10,01,06,47,9.60
2010,10,01,06,48,9.60
2010,10,01,06,49,9.60
2010,10,01,06,50,9.50
2010,10,01,06,51,9.50
2010,10,01,06,52,9.50
2010,10,01,06,53,9.50
2010,10,01,06,54,9.50
2010,10,01,06,55,9.50
2010,10,01,06,56,9.50
2010,10,01,06,57,9.40
2010,10,01,06,58,9.40
2010,10,01,06,59,9.40
2010,10,01,07,00,9.40
2010,10,01,07,01,9.40
2010,10,01,07,02,9.40
2010,10,01,07,03,9.30
2010,10,01,07,04,9.30
2010,10,01,07,05,9.20
2010,10,01,07,06,9.20
2010,10,01,07,07,9.20
2010,10,01,07,08,9.20
2010,10,01,07,09,9.20
2010,10,01,07,10,9.20
2010,10,01,07,11,9.20
2010,10,01,07,12,9.20
2010,10,01,07,13,9.20
2010,10,01,07,14,9.10
2010,10,01,07,15,9.10
2010,10,01,07,16,9.10
2010,10,01,07,17,9.10
2010,10,01,07,18,9.20
2010,10,01,07,19,9.20
2010,10,01,07,20,9.20
2010,10,01,07,21,9.20
2010,10,01,07,22,9.20
2010,10,01,07,23,9.20
2010,10,01,07,24,9.20
2010,10,01,07,25,9.20
2010,10,01,07,26,9.20
2010,10,01,07,27,9.20
2010,10,01,07,28,9.20
2010,10,01,07,29,9.20
2010,10,01,07,30,9.20
2010,10,01,07,31,9.20
2010,10,01,07,32,9.30
2010,10,01,07,33,9.30
2010,10,01,07,34,9.30
2010,10,01,07,35,9.40
2010,10,01,07,36,9.40
2010,10,01,07,37,9.40
2010,10,01,07,38,9.50
2010,10,01,07,39,9.50
2010,10,01,07,40,9.50
2010,10,01,07,41,9.50
2010,10,01,07,42,9.60
2010,10,01,07,43,9.60
2010,10,01,07,44,9.70
2010,10,01,07,45,9.70
2010,10,01,07,46,9.70
2010,10,01,07,47,9.80
2010,10,01,07,48,9.80
2010,10,01,07,49,9.80
2010,10,01,07,50,9.90
2010,10,01,07,51,9.90
2010,10,01,07,52,9.90
2010,10,01,07,53,9.90
2010,10,01,07,54,9.90
2010,10,01,07,55,10.00
2010,10,01,07,56,10.10
2010,10,01,07,57,10.10
2010,10,01,07,58,10.10
2010,10,01,07,59,10.20
2010,10,01,08,00,10.30
2010,10,01,08,01,10.30
2010,10,01,08,02,10.40
2010,10,01,08,03,10.40
2010,10,01,08,04,10.40
2010,10,01,08,05,10.40
2010,10,01,08,06,10.50
2010,10,01,08,07,10.60
2010,10,01,08,08,10.60
2010,10,01,08,09,10.60
2010,10,01,08,10,10.70
2010,10,01,08,11,10.70
2010,10,01,08,12,10.80
2010,10,01,08,13,10.80
2010,10,01,08,14,10.90
2010,10,01,08,15,10.90
2010,10,01,08,16,11.10
2010,10,01,08,17,11.10
2010,10,01,08,18,11.20
2010,10,01,08,19,11.20
2010,10,01,08,20,11.30
2010,10,01,08,21,11.40
2010,10,01,08,22,11.50
2010,10,01,08,23,11.60
2010,10,01,08,24,11.70
2010,10,01,08,25,11.70
2010,10,01,08,26,11.80
2010,10,01,08,27,11.80
2010,10,01,08,28,11.80
2010,10,01,08,29,11.90
2010,10,01,08,30,12.00
2010,10,01,08,31,12.00
2010,10,01,08,32,12.00
2010,10,01,08,33,12.00
2010,10,01,08,34,12.00
2010,10,01,08,35,12.10
2010,10,01,08,36,12.20
2010,10,01,08,37,12.30
2010,10,01,08,38,12.30
2010,10,01,08,39,12.30
2010,10,01,08,40,12.30
2010,10,01,08,41,12.20
2010,10,01,08,42,12.20
2010,10,01,08,43,12.20
2010,10,01,08,44,12.10
2010,10,01,08,45,12.10
2010,10,01,08,46,12.20
2010,10,01,08,47,12.20
2010,10,01,08,48,12.20
2010,10,01,08,49,12.30
2010,10,01,08,50,12.40
2010,10,01,08,51,12.60
2010,10,01,08,52,12.70
2010,10,01,08,53,12.80
2010,10,01,08,54,12.80
2010,10,01,08,55,12.90
2010,10,01,08,56,12.90
2010,10,01,08,57,12.90
2010,10,01,08,58,12.90
2010,10,01,08,59,12.90
2010,10,01,09,00,13.00
2010,10,01,09,01,13.00
2010,10,01,09,02,13.10
2010,10,01,09,03,13.10
2010,10,01,09,04,13.20
2010,10,01,09,05,13.30
2010,10,01,09,06,13.30
2010,10,01,09,07,13.40
2010,10,01,09,08,13.50
2010,10,01,09,09,13.50
2010,10,01,09,10,13.60
2010,10,01,09,11,13.70
2010,10,01,09,12,13.70
2010,10,01,09,13,13.80
2010,10,01,09,14,13.90
2010,10,01,09,15,13.90
2010,10,01,09,16,13.90
2010,10,01,09,17,13.90
2010,10,01,09,18,13.90
2010,10,01,09,19,13.80
2010,10,01,09,20,13.80
2010,10,01,09,21,13.70
2010,10,01,09,22,13.70
2010,10,01,09,23,13.60
2010,10,01,09,24,13.60
2010,10,01,09,25,13.60
2010,10,01,09,26,13.60
2010,10,01,09,27,13.60
2010,10,01,09,28,13.60
2010,10,01,09,29,13.70
2010,10,01,09,30,13.70
2010,10,01,09,31,13.70
2010,10,01,09,32,13.80
2010,10,01,09,33,13.80
2010,10,01,09,34,13.90
2010,10,01,09,35,13.90
2010,10,01,09,36,14.00
2010,10,01,09,37,14.00
2010,10,01,09,38,14.10
2010,10,01,09,39,14.10
2010,10,01,09,40,14.20
2010,10,01,09,41,14.30
2010,10,01,09,42,14.40
2010,10,01,09,43,14.50
2010,10,01,09,44,14.60
2010,10,01,09,45,14.60
2010,10,01,09,46,14.70
2010,10,01,09,47,14.70
2010,10,01,09,48,14.80
2010,10,01,09,49,14.90
2010,10,01,09,50,14.90
2010,10,01,09,51,15.00
2010,10,01,09,52,15.00
2010,10,01,09,53,15.00
2010,10,01,09,54,15.00
2010,10,01,09,55,15.00
2010,10,01,09,56,15.10
2010,10,01,09,57,15.00
2010,10,01,09,58,15.00
2010,10,01,09,59,15.00
2010,10,01,10,00,15.00
2010,10,01,10,01,15.00
2010,10,01,10,02,15.00
2010,10,01,10,03,15.00
2010,10,01,10,04,15.10
2010,10,01,10,05,15.10
2010,10,01,10,06,15.10
2010,10,01,10,07,15.20
2010,10,01,10,08,15.20
2010,10,01,10,09,15.20
2010,10,01,10,10,15.20
2010,10,01,10,11,15.20
2010,10,01,10,12,15.30
2010,10,01,10,13,15.30
2010,10,01,10,14,15.40
2010,10,01,10,15,15.40
2010,10,01,10,16,15.50
2010,10,01,10,17,15.50
2010,10,01,10,18,15.50
2010,10,01,10,19,15.50
2010,10,01,10,20,15.50
2010,10,01,10,21,15.50
2010,10,01,10,22,15.50
2010,10,01,10,23,15.50
2010,10,01,10,24,15.50
2010,10,01,10,25,15.50
2010,10,01,10,26,15.40
2010,10,01,10,27,15.40
2010,10,01,10,28,15.40
2010,10,01,10,29,15.40
2010,10,01,10,30,15.40
2010,10,01,10,31,15.30
2010,10,01,10,32,15.20
2010,10,01,10,33,15.10
2010,10,01,10,34,15.10
2010,10,01,10,35,15.00
2010,10,01,10,36,14.90
2010,10,01,10,37,14.90
2010,10,01,10,38,14.90
2010,10,01,10,39,14.90
2010,10,01,10,40,14.90
2010,10,01,10,41,14.90
2010,10,01,10,42,14.90
2010,10,01,10,43,15.00
2010,10,01,10,44,15.00
2010,10,01,10,45,15.10
2010,10,01,10,46,15.10
2010,10,01,10,47,15.20
2010,10,01,10,48,15.30
2010,10,01,10,49,15.40
2010,10,01,10,50,15.40
2010,10,01,10,51,15.50
2010,10,01,10,52,15.60
2010,10,01,10,53,15.70
2010,10,01,10,54,15.80
2010,10,01,10,55,15.80
2010,10,01,10,56,15.90
2010,10,01,10,57,16.10
2010,10,01,10,58,16.10
2010,10,01,10,59,16.30
2010,10,01,11,00,16.50
2010,10,01,11,01,16.70
2010,10,01,11,02,16.90
2010,10,01,11,03,17.10
2010,10,01,11,04,17.30
2010,10,01,11,05,17.50
2010,10,01,11,06,17.60
2010,10,01,11,07,17.70
2010,10,01,11,08,17.80
2010,10,01,11,09,17.90
2010,10,01,11,10,18.00
2010,10,01,11,11,18.20
2010,10,01,11,12,18.20
2010,10,01,11,13,18.20
2010,10,01,11,14,18.20
2010,10,01,11,15,18.20
2010,10,01,11,16,18.20
2010,10,01,11,17,18.20
2010,10,01,11,18,18.20
2010,10,01,11,19,18.20
2010,10,01,11,20,18.20
2010,10,01,11,21,18.30
2010,10,01,11,22,18.40
2010,10,01,11,23,18.40
2010,10,01,11,24,18.40
2010,10,01,11,25,18.40
2010,10,01,11,26,18.40
2010,10,01,11,27,18.30
2010,10,01,11,28,18.30
2010,10,01,11,29,18.30
2010,10,01,11,30,18.30
2010,10,01,11,31,18.30
2010,10,01,11,32,18.20
2010,10,01,11,33,18.20
2010,10,01,11,34,18.20
2010,10,01,11,35,18.20
2010,10,01,11,36,18.10
2010,10,01,11,37,18.00
2010,10,01,11,38,17.80
2010,10,01,11,39,17.70
2010,10,01,11,40,17.50
2010,10,01,11,41,17.40
2010,10,01,11,42,17.30
2010,10,01,11,43,17.10
2010,10,01,11,44,17.00
2010,10,01,11,45,16.80
2010,10,01,11,46,16.70
2010,10,01,11,47,16.60
2010,10,01,11,48,16.50
2010,10,01,11,49,16.40
2010,10,01,11,50,16.40
2010,10,01,11,51,16.40
2010,10,01,11,52,16.50
2010,10,01,11,53,16.60
2010,10,01,11,54,16.70
2010,10,01,11,55,16.90
2010,10,01,11,56,17.10
2010,10,01,11,57,17.30
2010,10,01,11,58,17.50
2010,10,01,11,59,17.70
2010,10,01,12,00,17.80
2010,10,01,12,01,17.90
2010,10,01,12,02,18.00
2010,10,01,12,03,18.10
2010,10,01,12,04,18.20
2010,10,01,12,05,18.30
2010,10,01,12,06,18.50
2010,10,01,12,07,18.60
2010,10,01,12,08,18.70
2010,10,01,12,09,18.60
2010,10,01,12,10,18.60
2010,10,01,12,11,18.70
2010,10,01,12,12,18.70
2010,10,01,12,13,18.70
2010,10,01,12,14,18.70
2010,10,01,12,15,18.70
2010,10,01,12,16,18.90
2010,10,01,12,17,18.90
2010,10,01,12,18,19.00
2010,10,01,12,19,19.10
2010,10,01,12,20,19.10
2010,10,01,12,21,19.00
2010,10,01,12,22,19.00
2010,10,01,12,23,18.90
2010,10,01,12,24,19.00
2010,10,01,12,25,19.10
2010,10,01,12,26,19.10
2010,10,01,12,27,19.30
2010,10,01,12,28,19.30
2010,10,01,12,29,19.30
2010,10,01,12,30,19.20
2010,10,01,12,31,19.30
2010,10,01,12,32,19.40
2010,10,01,12,33,19.60
2010,10,01,12,34,19.70
2010,10,01,12,35,19.80
2010,10,01,12,36,19.90
2010,10,01,12,37,20.00
2010,10,01,12,38,19.90
2010,10,01,12,39,19.90
2010,10,01,12,40,19.90
2010,10,01,12,41,19.90
2010,10,01,12,42,20.10
2010,10,01,12,43,20.10
2010,10,01,12,44,20.10
2010,10,01,12,45,20.10
2010,10,01,12,46,20.10
2010,10,01,12,47,20.10
2010,10,01,12,48,20.20
2010,10,01,12,49,20.20
2010,10,01,12,50,20.10
2010,10,01,12,51,20.10
2010,10,01,12,52,20.00
2010,10,01,12,53,19.90
2010,10,01,12,54,19.90
2010,10,01,12,55,19.90
2010,10,01,12,56,19.90
2010,10,01,12,57,19.90
2010,10,01,12,58,19.90
2010,10,01,12,59,20.10
2010,10,01,13,00,20.10
2010,10,01,13,01,20.20
2010,10,01,13,02,20.10
2010,10,01,13,03,20.00
2010,10,01,13,04,19.90
2010,10,01,13,05,20.10
2010,10,01,13,06,20.10
2010,10,01,13,07,20.10
2010,10,01,13,08,20.10
2010,10,01,13,09,20.10
2010,10,01,13,10,20.10
2010,10,01,13,11,20.00
2010,10,01,13,12,19.90
2010,10,01,13,13,20.00
2010,10,01,13,14,20.10
2010,10,01,13,15,20.10
2010,10,01,13,16,19.90
2010,10,01,13,17,19.80
2010,10,01,13,18,19.60
2010,10,01,13,19,19.60
2010,10,01,13,20,19.60
2010,10,01,13,21,19.70
2010,10,01,13,22,19.70
2010,10,01,13,23,19.80
2010,10,01,13,24,19.80
2010,10,01,13,25,19.80
2010,10,01,13,26,19.90
2010,10,01,13,27,20.00
2010,10,01,13,28,20.10
2010,10,01,13,29,20.20
2010,10,01,13,30,20.20
2010,10,01,13,31,20.00
2010,10,01,13,32,19.90
2010,10,01,13,33,19.80
2010,10,01,13,34,19.70
2010,10,01,13,35,19.60
2010,10,01,13,36,19.70
2010,10,01,13,37,19.70
2010,10,01,13,38,19.60
2010,10,01,13,39,19.60
2010,10,01,13,40,19.50
2010,10,01,13,41,19.40
2010,10,01,13,42,19.40
2010,10,01,13,43,19.40
2010,10,01,13,44,19.30
2010,10,01,13,45,19.40
2010,10,01,13,46,19.40
2010,10,01,13,47,19.40
2010,10,01,13,48,19.30
2010,10,01,13,49,19.30
2010,10,01,13,50,19.30
2010,10,01,13,51,19.10
2010,10,01,13,52,19.10
2010,10,01,13,53,18.90
2010,10,01,13,54,18.80
2010,10,01,13,55,18.80
2010,10,01,13,56,18.90
2010,10,01,13,57,19.00
2010,10,01,13,58,19.10
2010,10,01,13,59,19.20
2010,10,01,14,00,19.40
2010,10,01,14,01,19.40
2010,10,01,14,02,19.50
2010,10,01,14,03,19.40
2010,10,01,14,04,19.40
2010,10,01,14,05,19.30
2010,10,01,14,06,19.30
2010,10,01,14,07,19.30
2010,10,01,14,08,19.20
2010,10,01,14,09,19.30
2010,10,01,14,10,19.40
2010,10,01,14,11,19.50
2010,10,01,14,12,19.50
2010,10,01,14,13,19.60
2010,10,01,14,14,19.60
2010,10,01,14,15,19.60
2010,10,01,14,16,19.50
2010,10,01,14,17,19.50
2010,10,01,14,18,19.50
2010,10,01,14,19,19.50
2010,10,01,14,20,19.70
2010,10,01,14,21,19.80
2010,10,01,14,22,19.90
2010,10,01,14,23,20.00
2010,10,01,14,24,20.00
2010,10,01,14,25,20.10
2010,10,01,14,26,20.10
2010,10,01,14,27,20.00
2010,10,01,14,28,19.90
2010,10,01,14,29,19.90
2010,10,01,14,30,19.90
2010,10,01,14,31,19.90
2010,10,01,14,32,20.00
2010,10,01,14,33,20.10
2010,10,01,14,34,20.20
2010,10,01,14,35,20.20
2010,10,01,14,36,20.30
2010,10,01,14,37,20.40
2010,10,01,14,38,20.40
2010,10,01,14,39,20.40
2010,10,01,14,40,20.40
2010,10,01,14,41,20.40
2010,10,01,14,42,20.50
2010,10,01,14,43,20.50
2010,10,01,14,44,20.40
2010,10,01,14,45,20.30
2010,10,01,14,46,20.30
2010,10,01,14,47,20.40
2010,10,01,14,48,20.40
2010,10,01,14,49,20.50
2010,10,01,14,50,20.60
2010,10,01,14,51,20.70
2010,10,01,14,52,20.70
2010,10,01,14,53,20.70
2010,10,01,14,54,20.80
2010,10,01,14,55,20.90
2010,10,01,14,56,20.90
2010,10,01,14,57,20.80
2010,10,01,14,58,20.80
2010,10,01,14,59,20.80
2010,10,01,15,00,20.80
2010,10,01,15,01,20.80
2010,10,01,15,02,20.80
2010,10,01,15,03,20.80
2010,10,01,15,04,20.70
2010,10,01,15,05,20.70
2010,10,01,15,06,20.70
2010,10,01,15,07,20.70
2010,10,01,15,08,20.60
2010,10,01,15,09,20.50
2010,10,01,15,10,20.60
2010,10,01,15,11,20.50
2010,10,01,15,12,20.50
2010,10,01,15,13,20.30
2010,10,01,15,14,20.30
2010,10,01,15,15,20.20
2010,10,01,15,16,20.20
2010,10,01,15,17,20.20
2010,10,01,15,18,20.20
2010,10,01,15,19,20.30
2010,10,01,15,20,20.50
2010,10,01,15,21,20.40
2010,10,01,15,22,20.10
2010,10,01,15,23,19.80
2010,10,01,15,24,19.60
2010,10,01,15,25,19.40
2010,10,01,15,26,19.40
2010,10,01,15,27,19.30
2010,10,01,15,28,19.30
2010,10,01,15,29,19.20
2010,10,01,15,30,19.20
2010,10,01,15,31,19.10
2010,10,01,15,32,19.00
2010,10,01,15,33,18.90
2010,10,01,15,34,19.10
2010,10,01,15,35,19.10
2010,10,01,15,36,19.10
2010,10,01,15,37,19.10
2010,10,01,15,38,19.10
2010,10,01,15,39,19.10
2010,10,01,15,40,19.10
2010,10,01,15,41,19.10
2010,10,01,15,42,19.10
2010,10,01,15,43,19.00
2010,10,01,15,44,18.90
2010,10,01,15,45,18.80
2010,10,01,15,46,18.70
2010,10,01,15,47,18.70
2010,10,01,15,48,18.70
2010,10,01,15,49,18.60
2010,10,01,15,50,18.30
2010,10,01,15,51,18.10
2010,10,01,15,52,17.90
2010,10,01,15,53,17.70
2010,10,01,15,54,17.50
2010,10,01,15,55,17.30
2010,10,01,15,56,17.30
2010,10,01,15,57,17.10
2010,10,01,15,58,16.90
2010,10,01,15,59,16.60
2010,10,01,16,00,16.40
2010,10,01,16,01,16.20
2010,10,01,16,02,16.20
2010,10,01,16,03,16.30
2010,10,01,16,04,16.20
2010,10,01,16,05,16.20
2010,10,01,16,06,16.20
2010,10,01,16,07,16.10
2010,10,01,16,08,16.00
2010,10,01,16,09,15.80
2010,10,01,16,10,15.80
2010,10,01,16,11,15.70
2010,10,01,16,12,15.60
2010,10,01,16,13,15.50
2010,10,01,16,14,15.50
2010,10,01,16,15,15.50
2010,10,01,16,16,15.50
2010,10,01,16,17,15.40
2010,10,01,16,18,15.40
2010,10,01,16,19,15.40
2010,10,01,16,20,15.40
2010,10,01,16,21,15.50
2010,10,01,16,22,15.60
2010,10,01,16,23,15.60
2010,10,01,16,24,15.60
2010,10,01,16,25,15.70
2010,10,01,16,26,15.70
2010,10,01,16,27,15.70
2010,10,01,16,28,15.60
2010,10,01,16,29,15.50
2010,10,01,16,30,15.50
2010,10,01,16,31,15.60
2010,10,01,16,32,15.70
2010,10,01,16,33,15.70
2010,10,01,16,34,15.80
2010,10,01,16,35,15.80
2010,10,01,16,36,15.90
2010,10,01,16,37,15.90
2010,10,01,16,38,16.00
2010,10,01,16,39,16.10
2010,10,01,16,40,16.10
2010,10,01,16,41,16.30
2010,10,01,16,42,16.40
2010,10,01,16,43,16.50
2010,10,01,16,44,16.60
2010,10,01,16,45,16.70
2010,10,01,16,46,16.70
2010,10,01,16,47,16.70
2010,10,01,16,48,16.80
2010,10,01,16,49,16.90
2010,10,01,16,50,17.10
2010,10,01,16,51,17.30
2010,10,01,16,52,17.40
2010,10,01,16,53,17.50
2010,10,01,16,54,17.50
2010,10,01,16,55,17.50
2010,10,01,16,56,17.50
2010,10,01,16,57,17.50
2010,10,01,16,58,17.50
2010,10,01,16,59,17.50
2010,10,01,17,00,17.50
2010,10,01,17,01,17.50
2010,10,01,17,02,17.60
2010,10,01,17,03,17.80
2010,10,01,17,04,18.00
2010,10,01,17,05,18.20
2010,10,01,17,06,18.40
2010,10,01,17,07,18.60
2010,10,01,17,08,18.80
2010,10,01,17,09,19.00
2010,10,01,17,10,19.20
2010,10,01,17,11,19.50
2010,10,01,17,12,19.80
2010,10,01,17,13,20.10
2010,10,01,17,14,20.40
2010,10,01,17,15,20.60
2010,10,01,17,16,20.90
2010,10,01,17,17,21.20
2010,10,01,17,18,21.40
2010,10,01,17,19,21.50
2010,10,01,17,20,21.70
2010,10,01,17,21,21.70
2010,10,01,17,22,21.80
2010,10,01,17,23,21.80
2010,10,01,17,24,21.90
2010,10,01,17,25,21.90
2010,10,01,17,26,21.90
2010,10,01,17,27,21.90
2010,10,01,17,28,21.90
2010,10,01,17,29,21.90